{"data":{"norad_id":50471,"epoch":"2026-09-20T04:45:28.547712Z","epoch_age_seconds":51954,"freshness":"FRESH","line1":"1 50471U 21132C   26263.19824708  .00000041  00000+0  71719-4 0  9997","line2":"2 50471  87.9200 347.0122 0002182 123.6998 236.4342 13.17650023230596","mean_motion":13.17650023,"eccentricity":0.0002182,"inclination_deg":87.92,"raan_deg":347.0122,"arg_perigee_deg":123.6998,"mean_anomaly_deg":236.4342,"bstar":7.1719e-5,"rev_number":23059,"period_min":109.28546843732,"perigee_km":1192.0571638919,"apogee_km":1195.361517635,"semimajor_km":7571.8463407634,"source":"CELESTRAK","updated_at":"2026-09-20T09:00:44.676793Z"}}